Location: Hradec Kralove
(50.2170°N, 15.8330°E)
Time: 00:38:50
(UTC+02:00)

ISS - Visible Passes

Search period start: 16 July 2018 00:00
Search period end: 26 July 2018 00:00
Orbit: 402 x 408 km, 51.6° (Epoch: 16 July)

Date Brightness Start Highest point End Pass type
(mag) Time Alt. Az. Time Alt. Az. Time Alt. Az.
16 Jul -3.2 00:59:18 42° ESE 00:59:18 42° ESE 01:01:49 10° ENE visible
16 Jul -3.5 02:31:55 11° W 02:35:05 68° N 02:38:23 10° E visible
16 Jul -3.8 04:08:24 10° WNW 04:11:42 87° NNE 04:15:01 10° ESE visible
17 Jul -1.8 00:08:36 18° E 00:08:36 18° E 00:09:39 10° E visible
17 Jul -3.8 01:41:13 25° W 01:42:58 78° N 01:46:16 10° ENE visible
17 Jul -3.6 03:16:19 10° WNW 03:19:37 73° N 03:22:55 10° E visible
18 Jul -4.0 00:50:13 54° WSW 00:50:52 84° SSE 00:54:11 10° ENE visible
18 Jul -3.5 02:24:12 10° W 02:27:29 66° N 02:30:47 10° E visible
18 Jul -3.8 04:00:45 10° WNW 04:04:01 63° SSW 04:07:17 10° ESE visible
18 Jul -3.9 23:58:12 49° SSW 23:58:48 61° SSE 00:02:04 10° ENE visible
19 Jul -3.5 01:32:03 10° W 01:35:20 66° N 01:38:37 10° E visible
19 Jul -3.9 03:08:38 10° WNW 03:11:57 85° SSW 03:15:15 10° ESE visible
19 Jul -3.5 23:03:40 10° SW 23:06:47 41° SSE 23:09:54 10° E visible
20 Jul -3.7 00:39:54 10° W 00:43:11 73° N 00:46:29 10° ENE visible
20 Jul -3.7 02:16:31 10° WNW 02:19:49 77° N 02:23:08 10° E visible
20 Jul -3.3 03:53:07 10° W 03:56:11 36° SSW 03:59:14 10° SE visible
20 Jul -2.9 22:11:57 10° SSW 22:14:47 27° SE 22:17:38 10° E visible
20 Jul -3.9 23:47:45 10° WSW 23:51:02 88° NNW 23:54:21 10° ENE visible
21 Jul -3.5 01:24:23 10° W 01:27:40 68° N 01:30:58 10° E visible
21 Jul -3.8 03:00:55 10° WNW 03:04:09 54° SSW 03:07:23 10° SE visible
21 Jul -4.0 22:55:39 10° WSW 22:58:55 70° SSE 23:02:12 10° ENE visible
22 Jul -3.5 00:32:12 10° W 00:35:29 66° N 00:38:45 10° E visible
22 Jul -4.0 02:08:46 10° WNW 02:12:04 77° SSW 02:15:21 10° ESE visible
22 Jul -2.5 03:45:41 10° W 03:48:12 20° SW 03:50:42 10° SSE visible
22 Jul -3.6 22:03:40 10° SW 22:06:50 48° SSE 22:10:01 10° ENE visible
22 Jul -3.6 23:40:01 10° W 23:43:17 70° N 23:46:35 10° ENE visible
23 Jul -3.9 01:16:36 10° WNW 01:19:55 83° NNE 01:20:48 45° E visible
23 Jul -1.2 02:53:15 10° W 02:53:17 10° W 02:53:17 10° W visible
23 Jul -3.8 22:47:49 10° W 22:51:06 82° NNW 22:54:24 10° ENE visible
24 Jul -3.6 00:24:26 10° WNW 00:27:44 70° N 00:29:06 32° E visible
24 Jul -1.5 02:00:59 10° WNW 02:01:40 15° W 02:01:40 15° W visible
24 Jul -3.9 21:55:39 10° WSW 21:58:56 78° SSE 22:02:13 10° ENE visible
24 Jul -3.5 23:32:14 10° W 23:35:31 66° N 23:38:04 15° E visible
25 Jul -2.5 01:08:47 10° WNW 01:10:40 31° W 01:10:40 31° W visible
25 Jul -3.5 22:40:01 10° W 22:43:16 67° N 22:46:34 10° E visible
